MST,Max TemperatureF,Mean TemperatureF,Min TemperatureF,Max Dew PointF,MeanDew PointF,Min DewpointF,Max Humidity, Mean Humidity, Min Humidity, Max Sea Level PressureIn, Mean Sea Level PressureIn, Min Sea Level PressureIn, Max VisibilityMiles, Mean VisibilityMiles, Min VisibilityMiles, Max Wind SpeedMPH, Mean Wind SpeedMPH, Max Gust SpeedMPH,PrecipitationIn, CloudCover, Events, WindDirDegrees
2013-11-1,57,43,29,35,26,19,79,52,24,30.23,30.04,29.80,10,10,10,35,16,45,0.00,2,,310
2013-11-2,62,44,25,29,23,20,81,51,20,30.29,30.11,29.80,10,10,10,29,15,36,0.00,0,,189
2013-11-3,56,44,31,35,29,26,82,60,38,29.78,29.66,29.57,10,10,10,20,8,40,0.00,0,,84
2013-11-4,49,41,33,34,29,26,89,66,42,30.12,30.03,29.79,10,10,10,26,10,37,0.00,2,,47
2013-11-5,39,32,24,35,31,21,100,82,64,30.25,30.07,29.96,10,6,0,22,11,26,0.52,7,Fog-Rain-Snow,8
2013-11-6,49,35,21,29,24,16,88,65,42,30.40,30.30,30.25,10,10,10,16,8,22,0.00,0,,270
2013-11-7,57,43,28,32,29,24,85,60,35,30.51,30.34,30.06,10,10,10,21,10,25,0.00,0,,195
2013-11-8,69,49,29,36,30,26,92,56,20,30.03,29.89,29.73,10,10,10,35,10,47,0.00,0,,246
2013-11-9,61,46,31,35,30,25,92,59,25,30.34,30.21,30.04,10,10,10,14,6,16,0.00,0,,89
2013-11-10,61,46,31,43,36,27,92,72,51,30.35,30.25,30.14,10,10,10,23,11,29,0.00,1,,185
2013-11-11,41,33,25,34,25,21,100,88,75,30.83,30.51,30.12,10,8,2,23,11,29,0.00,6,Snow,23
2013-11-12,50,36,21,32,26,19,96,71,46,30.84,30.68,30.42,10,10,10,17,9,23,0.00,2,,182
2013-11-13,71,49,26,36,30,23,92,57,22,30.39,30.13,29.91,10,10,9,21,12,,0.00,0,,288
2013-11-14,58,46,34,38,32,29,89,64,39,30.09,29.95,29.86,10,10,10,31,15,38,0.00,0,,354
2013-11-15,62,47,32,36,32,27,85,56,27,29.83,29.62,29.39,10,10,9,24,10,30,0.00,0,Snow,172
2013-11-16,60,46,32,31,28,25,75,52,28,29.47,29.41,29.35,10,10,9,17,7,22,0.00,1,Snow,287
2013-11-17,51,37,22,24,14,6,65,41,16,30.18,29.87,29.46,10,10,9,40,16,53,0.00,0,,291
2013-11-18,61,41,20,21,17,13,71,44,17,30.27,30.16,30.03,10,10,10,21,8,26,0.00,0,,209
2013-11-19,56,39,22,27,23,17,81,56,30,30.02,29.84,29.73,10,10,10,14,7,20,0.00,0,,186
2013-11-20,63,47,31,32,29,23,70,50,30,30.08,29.83,29.74,10,10,9,30,10,39,0.00,2,,333
2013-11-21,30,21,12,19,11,5,88,78,67,30.78,30.44,30.13,10,5,0,31,20,39,0.02,7,Fog-Snow,356
2013-11-22,31,21,10,17,12,5,84,69,53,30.78,30.73,30.68,10,10,10,13,5,14,0.00,0,,291
2013-11-23,31,22,13,16,12,7,80,67,53,30.86,30.76,30.60,10,10,10,13,6,16,0.00,0,,167
2013-11-24,40,30,19,24,20,14,81,66,50,30.56,30.28,30.10,10,10,10,29,13,36,0.00,2,,187
2013-11-25,45,32,18,27,22,17,92,69,45,30.37,30.26,30.09,10,10,10,18,10,25,0.00,2,,334
2013-11-26,40,29,18,24,19,15,88,66,44,30.49,30.44,30.37,10,10,10,20,8,23,0.00,0,,334
2013-11-27,62,40,17,28,22,13,84,53,22,30.40,30.18,30.01,10,10,10,15,7,21,0.00,0,,253
2013-11-28,43,33,22,24,21,19,88,66,43,30.39,30.33,30.17,10,10,10,16,8,20,0.00,0,,76
2013-11-29,45,33,20,30,24,17,100,79,58,30.33,30.20,30.08,10,8,2,16,7,21,0.00,3,,201
2013-11-30,59,43,26,28,24,21,81,54,26,30.23,30.17,30.10,10,10,10,21,8,28,0.00,0,,300